Time,TemperatureF,DewpointF,PressureIn,WindDirection,WindDirectionDegrees,WindSpeedMPH,WindSpeedGustMPH,Humidity,HourlyPrecipIn,Conditions,Clouds,dailyrainin,SoftwareType,DateUTC
2013-05-07 00:01:00,55.8,28.3,29.85,SSW,207,0.0,3.6,35,0.00,,,0.00,WUHU216WMR968SP,2013-05-07 07:01:00,
2013-05-07 00:06:00,55.2,27.8,29.88,SSW,207,0.0,0.0,35,0.00,,,0.00,WUHU216WMR968SP,2013-05-07 07:06:00,
2013-05-07 00:11:00,54.7,28.0,29.88,SSW,206,0.0,0.0,36,0.00,,,0.00,WUHU216WMR968SP,2013-05-07 07:11:00,
2013-05-07 00:16:00,54.9,28.2,29.88,SSW,208,0.0,0.0,36,0.00,,,0.00,WUHU216WMR968SP,2013-05-07 07:16:00,
2013-05-07 00:21:00,54.5,27.9,29.88,SSW,208,0.0,0.0,36,0.00,,,0.00,WUHU216WMR968SP,2013-05-07 07:21:00,
2013-05-07 00:26:00,54.0,27.4,29.88,SSW,208,0.0,0.0,36,0.00,,,0.00,WUHU216WMR968SP,2013-05-07 07:26:00,
2013-05-07 00:31:00,53.4,27.6,29.88,SSW,208,0.0,0.0,37,0.00,,,0.00,WUHU216WMR968SP,2013-05-07 07:31:00,
2013-05-07 00:36:00,53.2,27.4,29.88,SSW,208,0.0,0.0,37,0.00,,,0.00,WUHU216WMR968SP,2013-05-07 07:36:00,
2013-05-07 00:41:00,53.2,27.4,29.88,SSW,208,0.0,0.0,37,0.00,,,0.00,WUHU216WMR968SP,2013-05-07 07:41:00,
2013-05-07 00:46:00,53.1,27.9,29.88,SSW,208,0.0,0.0,38,0.00,,,0.00,WUHU216WMR968SP,2013-05-07 07:46:00,
2013-05-07 00:51:00,52.9,27.8,29.88,SSW,208,0.0,0.0,38,0.00,,,0.00,WUHU216WMR968SP,2013-05-07 07:51:00,
2013-05-07 00:56:00,52.7,27.6,29.88,SSW,208,0.0,0.0,38,0.00,,,0.00,WUHU216WMR968SP,2013-05-07 07:56:00,
2013-05-07 01:01:00,52.5,27.4,29.88,SSW,208,0.0,0.0,38,0.00,,,0.00,WUHU216WMR968SP,2013-05-07 08:01:00,
2013-05-07 01:06:00,52.7,27.6,29.88,SSW,208,0.0,0.0,38,0.00,,,0.00,WUHU216WMR968SP,2013-05-07 08:06:00,
2013-05-07 01:11:00,52.3,27.2,29.88,SSW,208,0.0,0.0,38,0.00,,,0.00,WUHU216WMR968SP,2013-05-07 08:11:00,
2013-05-07 01:16:00,52.2,27.1,29.88,SSW,208,0.0,0.0,38,0.00,,,0.00,WUHU216WMR968SP,2013-05-07 08:16:00,
2013-05-07 01:21:00,52.0,27.0,29.88,SSW,208,0.0,0.0,38,0.00,,,0.00,WUHU216WMR968SP,2013-05-07 08:21:00,
2013-05-07 01:26:00,51.8,27.4,29.88,SSW,208,0.0,0.0,39,0.00,,,0.00,WUHU216WMR968SP,2013-05-07 08:26:00,
2013-05-07 01:31:00,51.6,27.2,29.88,SSW,208,0.0,0.0,39,0.00,,,0.00,WUHU216WMR968SP,2013-05-07 08:31:00,
2013-05-07 01:36:00,51.4,27.1,29.88,SSW,209,0.0,0.0,39,0.00,,,0.00,WUHU216WMR968SP,2013-05-07 08:36:00,
2013-05-07 01:41:00,51.3,27.6,29.88,SSW,208,0.0,0.0,40,0.00,,,0.00,WUHU216WMR968SP,2013-05-07 08:41:00,
2013-05-07 01:46:00,51.1,27.4,29.88,SSW,208,0.0,0.0,40,0.00,,,0.00,WUHU216WMR968SP,2013-05-07 08:46:00,
2013-05-07 01:51:00,50.9,27.9,29.88,SSW,208,0.0,0.0,41,0.00,,,0.00,WUHU216WMR968SP,2013-05-07 08:51:00,
2013-05-07 01:56:00,50.7,27.7,29.88,SSW,208,0.0,0.0,41,0.00,,,0.00,WUHU216WMR968SP,2013-05-07 08:56:00,
2013-05-07 02:01:00,50.4,28.0,29.88,SSW,208,0.0,0.0,42,0.00,,,0.00,WUHU216WMR968SP,2013-05-07 09:01:00,
2013-05-07 02:06:00,50.2,27.8,29.88,SSW,208,0.0,0.0,42,0.00,,,0.00,WUHU216WMR968SP,2013-05-07 09:06:00,
2013-05-07 02:11:00,50.2,27.8,29.88,SSW,208,0.0,0.0,42,0.00,,,0.00,WUHU216WMR968SP,2013-05-07 09:11:00,
2013-05-07 02:16:00,50.0,28.2,29.88,SSW,209,0.0,0.0,43,0.00,,,0.00,WUHU216WMR968SP,2013-05-07 09:16:00,
2013-05-07 02:21:00,50.0,28.2,29.88,SSW,209,0.0,0.0,43,0.00,,,0.00,WUHU216WMR968SP,2013-05-07 09:21:00,
2013-05-07 02:26:00,49.8,28.1,29.88,SSW,208,0.0,0.0,43,0.00,,,0.00,WUHU216WMR968SP,2013-05-07 09:26:00,
2013-05-07 02:31:00,49.6,28.4,29.88,SSW,208,0.0,0.0,44,0.00,,,0.00,WUHU216WMR968SP,2013-05-07 09:31:00,
2013-05-07 02:36:00,49.5,27.8,29.88,SSW,208,0.0,0.0,43,0.00,,,0.00,WUHU216WMR968SP,2013-05-07 09:36:00,
2013-05-07 02:41:00,49.3,28.2,29.88,SSW,209,0.0,0.0,44,0.00,,,0.00,WUHU216WMR968SP,2013-05-07 09:41:00,
2013-05-07 02:46:00,49.1,28.0,29.88,SSW,208,0.0,0.0,44,0.00,,,0.00,WUHU216WMR968SP,2013-05-07 09:46:00,
2013-05-07 02:51:00,48.9,27.8,29.88,SSW,208,0.0,0.0,44,0.00,,,0.00,WUHU216WMR968SP,2013-05-07 09:51:00,
2013-05-07 03:34:00,48.0,28.6,29.88,SSW,208,0.0,0.0,47,0.00,,,0.00,WUHU216WMR968SP,2013-05-07 10:34:00,
2013-05-07 03:39:00,48.0,28.6,29.88,SSW,208,0.0,0.0,47,0.00,,,0.00,WUHU216WMR968SP,2013-05-07 10:39:00,
2013-05-07 03:44:00,47.8,28.5,29.88,SSW,208,0.0,0.0,47,0.00,,,0.00,WUHU216WMR968SP,2013-05-07 10:44:00,
2013-05-07 03:49:00,47.7,28.9,29.88,SSW,208,0.0,0.0,48,0.00,,,0.00,WUHU216WMR968SP,2013-05-07 10:49:00,
2013-05-07 03:54:00,47.5,28.7,29.88,SSW,209,0.0,0.0,48,0.00,,,0.00,WUHU216WMR968SP,2013-05-07 10:54:00,
2013-05-07 03:59:00,47.5,28.7,29.88,SSW,209,0.0,0.0,48,0.00,,,0.00,WUHU216WMR968SP,2013-05-07 10:59:00,
2013-05-07 04:04:00,47.3,28.5,29.88,SSW,208,0.0,0.0,48,0.00,,,0.00,WUHU216WMR968SP,2013-05-07 11:04:00,
2013-05-07 04:09:00,47.3,28.5,29.88,SSW,208,0.0,0.0,48,0.00,,,0.00,WUHU216WMR968SP,2013-05-07 11:09:00,
2013-05-07 04:14:00,47.1,28.3,29.88,SSW,208,0.0,0.0,48,0.00,,,0.00,WUHU216WMR968SP,2013-05-07 11:14:00,
2013-05-07 04:19:00,46.9,28.2,29.88,SSW,208,0.0,0.0,48,0.00,,,0.00,WUHU216WMR968SP,2013-05-07 11:19:00,
2013-05-07 04:24:00,46.9,28.7,29.88,SSW,208,0.0,0.0,49,0.00,,,0.00,WUHU216WMR968SP,2013-05-07 11:24:00,
2013-05-07 04:29:00,46.8,28.6,29.88,SSW,208,0.0,0.0,49,0.00,,,0.00,WUHU216WMR968SP,2013-05-07 11:29:00,
2013-05-07 04:34:00,46.8,28.6,29.88,SSW,208,0.0,0.0,49,0.00,,,0.00,WUHU216WMR968SP,2013-05-07 11:34:00,
2013-05-07 04:39:00,46.6,28.4,29.88,SSW,208,0.0,0.0,49,0.00,,,0.00,WUHU216WMR968SP,2013-05-07 11:39:00,
2013-05-07 04:44:00,46.4,28.2,29.88,SSW,208,0.0,0.0,49,0.00,,,0.00,WUHU216WMR968SP,2013-05-07 11:44:00,
2013-05-07 04:49:00,46.4,28.2,29.88,SSW,208,0.0,0.0,49,0.00,,,0.00,WUHU216WMR968SP,2013-05-07 11:49:00,
2013-05-07 04:54:00,46.4,28.2,29.88,SSW,208,0.0,0.0,49,0.00,,,0.00,WUHU216WMR968SP,2013-05-07 11:54:00,
2013-05-07 04:59:00,46.2,28.5,29.88,SSW,208,0.0,0.0,50,0.00,,,0.00,WUHU216WMR968SP,2013-05-07 11:59:00,
2013-05-07 05:04:00,46.2,28.5,29.88,SSW,208,0.0,0.0,50,0.00,,,0.00,WUHU216WMR968SP,2013-05-07 12:04:00,
2013-05-07 05:09:00,46.0,28.4,29.88,SSW,208,0.0,0.0,50,0.00,,,0.00,WUHU216WMR968SP,2013-05-07 12:09:00,
2013-05-07 05:14:00,45.9,28.3,29.88,SSW,208,0.0,0.0,50,0.00,,,0.00,WUHU216WMR968SP,2013-05-07 12:14:00,
2013-05-07 05:19:00,45.9,28.8,29.88,SSW,209,0.0,0.0,51,0.00,,,0.00,WUHU216WMR968SP,2013-05-07 12:19:00,
2013-05-07 05:24:00,45.7,28.6,29.88,SSW,208,0.0,0.0,51,0.00,,,0.00,WUHU216WMR968SP,2013-05-07 12:24:00,
2013-05-07 05:29:00,45.5,28.4,29.88,SSW,208,0.0,0.0,51,0.00,,,0.00,WUHU216WMR968SP,2013-05-07 12:29:00,
2013-05-07 05:34:00,45.5,28.4,29.88,SSW,208,0.0,0.0,51,0.00,,,0.00,WUHU216WMR968SP,2013-05-07 12:34:00,
2013-05-07 05:39:00,45.3,28.2,29.88,SSW,208,0.0,0.0,51,0.00,,,0.00,WUHU216WMR968SP,2013-05-07 12:39:00,
2013-05-07 05:44:00,45.3,28.7,29.88,SSW,208,0.0,0.0,52,0.00,,,0.00,WUHU216WMR968SP,2013-05-07 12:44:00,
2013-05-07 05:49:00,45.3,28.7,29.88,SSW,208,0.0,0.0,52,0.00,,,0.00,WUHU216WMR968SP,2013-05-07 12:49:00,
2013-05-07 05:54:00,45.1,28.5,29.88,SSW,208,0.0,0.0,52,0.00,,,0.00,WUHU216WMR968SP,2013-05-07 12:54:00,
2013-05-07 05:59:00,45.1,29.0,29.88,SSW,208,0.0,0.0,53,0.00,,,0.00,WUHU216WMR968SP,2013-05-07 12:59:00,
2013-05-07 06:04:00,45.0,28.9,29.91,SSW,207,0.0,0.0,53,0.00,,,0.00,WUHU216WMR968SP,2013-05-07 13:04:00,
2013-05-07 06:09:00,45.0,28.9,29.91,SSW,209,0.0,0.0,53,0.00,,,0.00,WUHU216WMR968SP,2013-05-07 13:09:00,
2013-05-07 06:14:00,45.0,29.4,29.91,SSW,209,0.0,0.0,54,0.00,,,0.00,WUHU216WMR968SP,2013-05-07 13:14:00,
2013-05-07 06:19:00,45.0,29.4,29.91,SW,215,0.0,0.0,54,0.00,,,0.00,WUHU216WMR968SP,2013-05-07 13:19:00,
2013-05-07 06:24:00,44.8,29.2,29.91,SW,216,0.0,0.0,54,0.00,,,0.00,WUHU216WMR968SP,2013-05-07 13:24:00,
2013-05-07 06:29:00,44.8,29.6,29.91,SW,216,0.0,0.0,55,0.00,,,0.00,WUHU216WMR968SP,2013-05-07 13:29:00,
2013-05-07 06:34:00,44.8,29.6,29.91,SW,219,0.0,0.0,55,0.00,,,0.00,WUHU216WMR968SP,2013-05-07 13:34:00,
2013-05-07 06:39:00,45.0,30.3,29.91,SW,224,0.0,0.0,56,0.00,,,0.00,WUHU216WMR968SP,2013-05-07 13:39:00,
2013-05-07 06:44:00,45.0,30.3,29.91,WSW,241,0.0,0.0,56,0.00,,,0.00,WUHU216WMR968SP,2013-05-07 13:44:00,
2013-05-07 06:49:00,45.1,30.8,29.91,WSW,247,0.0,0.0,57,0.00,,,0.00,WUHU216WMR968SP,2013-05-07 13:49:00,
2013-05-07 06:54:00,45.3,31.0,29.91,WSW,244,0.0,0.0,57,0.00,,,0.00,WUHU216WMR968SP,2013-05-07 13:54:00,
2013-05-07 06:59:00,45.3,31.4,29.91,WSW,244,0.0,0.0,58,0.00,,,0.00,WUHU216WMR968SP,2013-05-07 13:59:00,
2013-05-07 07:04:00,45.5,33.8,29.91,WSW,250,0.0,0.0,59,0.00,,,0.00,WUHU216WMR968SP,2013-05-07 14:04:00,
2013-05-07 07:09:00,45.9,33.8,29.91,WSW,256,0.0,0.0,60,0.00,,,0.00,WUHU216WMR968SP,2013-05-07 14:09:00,
2013-05-07 07:14:00,46.2,33.8,29.91,WSW,253,0.0,0.0,60,0.00,,,0.00,WUHU216WMR968SP,2013-05-07 14:14:00,
2013-05-07 07:19:00,46.6,33.8,29.91,WSW,254,0.0,0.0,60,0.00,,,0.00,WUHU216WMR968SP,2013-05-07 14:19:00,
2013-05-07 07:24:00,46.9,33.8,29.91,WSW,254,0.0,0.0,60,0.00,,,0.00,WUHU216WMR968SP,2013-05-07 14:24:00,
2013-05-07 07:29:00,47.3,35.6,29.91,WSW,250,0.0,0.0,60,0.00,,,0.00,WUHU216WMR968SP,2013-05-07 14:29:00,
2013-05-07 07:34:00,47.7,33.8,29.91,WSW,250,0.0,0.0,59,0.00,,,0.00,WUHU216WMR968SP,2013-05-07 14:34:00,
2013-05-07 07:39:00,48.0,33.8,29.91,WSW,251,0.0,0.0,59,0.00,,,0.00,WUHU216WMR968SP,2013-05-07 14:39:00,
2013-05-07 07:44:00,48.4,33.8,29.91,WSW,257,0.0,0.0,58,0.00,,,0.00,WUHU216WMR968SP,2013-05-07 14:44:00,
2013-05-07 07:49:00,48.7,33.8,29.91,WSW,249,0.0,0.0,57,0.00,,,0.00,WUHU216WMR968SP,2013-05-07 14:49:00,
2013-05-07 07:54:00,49.3,35.6,29.91,WSW,250,0.0,0.0,56,0.00,,,0.00,WUHU216WMR968SP,2013-05-07 14:54:00,
2013-05-07 07:59:00,49.8,33.8,29.91,West,259,0.0,0.0,55,0.00,,,0.00,WUHU216WMR968SP,2013-05-07 14:59:00,
2013-05-07 08:04:00,50.4,33.8,29.91,West,279,0.0,0.0,54,0.00,,,0.00,WUHU216WMR968SP,2013-05-07 15:04:00,
2013-05-07 08:09:00,50.9,35.6,29.91,WNW,283,0.0,0.0,53,0.00,,,0.00,WUHU216WMR968SP,2013-05-07 15:09:00,
2013-05-07 08:14:00,51.6,33.8,29.91,WNW,288,0.0,0.0,50,0.00,,,0.00,WUHU216WMR968SP,2013-05-07 15:14:00,
2013-05-07 08:19:00,52.2,32.0,29.91,WNW,286,0.0,0.0,47,0.00,,,0.00,WUHU216WMR968SP,2013-05-07 15:19:00,
2013-05-07 08:24:00,52.9,33.8,29.91,West,281,0.0,0.0,46,0.00,,,0.00,WUHU216WMR968SP,2013-05-07 15:24:00,
2013-05-07 08:29:00,53.4,32.0,29.91,West,271,0.0,0.0,44,0.00,,,0.00,WUHU216WMR968SP,2013-05-07 15:29:00,
2013-05-07 08:34:00,54.1,30.7,29.91,West,268,0.0,0.0,41,0.00,,,0.00,WUHU216WMR968SP,2013-05-07 15:34:00,
2013-05-07 08:39:00,55.0,30.3,29.91,SSW,205,0.0,0.0,39,0.00,,,0.00,WUHU216WMR968SP,2013-05-07 15:39:00,
2013-05-07 08:44:00,55.9,28.4,29.91,SSW,205,0.0,3.1,35,0.00,,,0.00,WUHU216WMR968SP,2013-05-07 15:44:00,
2013-05-07 08:49:00,56.5,28.9,29.91,SW,235,0.0,3.1,35,0.00,,,0.00,WUHU216WMR968SP,2013-05-07 15:49:00,
2013-05-07 08:54:00,57.2,28.9,29.91,ESE,118,2.2,3.1,34,0.00,,,0.00,WUHU216WMR968SP,2013-05-07 15:54:00,
2013-05-07 08:59:00,57.7,28.6,29.91,SE,124,0.0,2.7,33,0.00,,,0.00,WUHU216WMR968SP,2013-05-07 15:59:00,
2013-05-07 09:04:00,58.1,26.6,29.91,SE,139,0.0,3.1,30,0.00,,,0.00,WUHU216WMR968SP,2013-05-07 16:04:00,
2013-05-07 09:09:00,58.1,26.6,29.91,SSE,150,3.1,3.6,30,0.00,,,0.00,WUHU216WMR968SP,2013-05-07 16:09:00,
2013-05-07 09:14:00,58.5,27.7,29.91,ESE,123,2.2,4.0,31,0.00,,,0.00,WUHU216WMR968SP,2013-05-07 16:14:00,
2013-05-07 09:19:00,59.2,28.4,29.91,SE,125,3.1,4.0,31,0.00,,,0.00,WUHU216WMR968SP,2013-05-07 16:19:00,
2013-05-07 09:24:00,59.4,26.9,29.91,SE,128,2.2,4.0,29,0.00,,,0.00,WUHU216WMR968SP,2013-05-07 16:24:00,
2013-05-07 09:29:00,60.6,27.1,29.91,SE,128,0.0,4.0,28,0.00,,,0.00,WUHU216WMR968SP,2013-05-07 16:29:00,
2013-05-07 09:34:00,61.7,27.2,29.91,ESE,117,0.0,2.7,27,0.00,,,0.00,WUHU216WMR968SP,2013-05-07 16:34:00,
2013-05-07 09:39:00,62.1,25.7,29.91,SE,129,3.1,3.6,25,0.00,,,0.00,WUHU216WMR968SP,2013-05-07 16:39:00,
2013-05-07 09:44:00,61.9,26.5,29.91,SE,129,2.7,3.6,26,0.00,,,0.00,WUHU216WMR968SP,2013-05-07 16:44:00,
2013-05-07 09:49:00,61.9,25.5,29.91,SSE,152,2.7,4.0,25,0.00,,,0.00,WUHU216WMR968SP,2013-05-07 16:49:00,
2013-05-07 09:54:00,62.4,26.0,29.91,SW,214,0.0,4.0,25,0.00,,,0.00,WUHU216WMR968SP,2013-05-07 16:54:00,
2013-05-07 09:59:00,63.3,25.8,29.91,South,187,0.0,3.1,24,0.00,,,0.00,WUHU216WMR968SP,2013-05-07 16:59:00,
2013-05-07 10:04:00,63.5,25.9,29.91,SW,217,2.2,3.6,24,0.00,,,0.00,WUHU216WMR968SP,2013-05-07 17:04:00,
2013-05-07 10:09:00,64.0,26.3,29.91,SSW,205,2.2,4.0,24,0.00,,,0.00,WUHU216WMR968SP,2013-05-07 17:09:00,
2013-05-07 10:14:00,64.8,26.0,29.91,NNW,337,0.0,4.0,23,0.00,,,0.00,WUHU216WMR968SP,2013-05-07 17:14:00,
2013-05-07 10:19:00,64.8,26.0,29.91,SW,230,0.0,4.0,23,0.00,,,0.00,WUHU216WMR968SP,2013-05-07 17:19:00,
2013-05-07 10:24:00,65.1,26.3,29.91,SSW,213,2.2,4.0,23,0.00,,,0.00,WUHU216WMR968SP,2013-05-07 17:24:00,
2013-05-07 10:29:00,65.7,26.8,29.91,SW,228,2.2,4.0,23,0.00,,,0.00,WUHU216WMR968SP,2013-05-07 17:29:00,
2013-05-07 10:34:00,65.8,26.9,29.91,SW,217,3.6,4.0,23,0.00,,,0.00,WUHU216WMR968SP,2013-05-07 17:34:00,
2013-05-07 10:39:00,66.0,23.7,29.91,SE,146,4.5,5.8,20,0.00,,,0.00,WUHU216WMR968SP,2013-05-07 17:39:00,
2013-05-07 10:44:00,66.6,24.2,29.91,South,183,0.0,5.8,20,0.00,,,0.00,WUHU216WMR968SP,2013-05-07 17:44:00,
2013-05-07 10:49:00,66.9,24.5,29.91,SSW,202,0.0,5.8,20,0.00,,,0.00,WUHU216WMR968SP,2013-05-07 17:49:00,
2013-05-07 10:54:00,67.6,25.0,29.91,West,270,2.2,4.0,20,0.00,,,0.00,WUHU216WMR968SP,2013-05-07 17:54:00,
2013-05-07 10:59:00,67.3,24.8,29.91,SSW,194,2.7,4.9,20,0.00,,,0.00,WUHU216WMR968SP,2013-05-07 17:59:00,
2013-05-07 11:04:00,67.3,24.8,29.91,SSW,213,3.1,5.4,20,0.00,,,0.00,WUHU216WMR968SP,2013-05-07 18:04:00,
2013-05-07 11:09:00,67.3,24.8,29.91,SSW,208,2.7,5.4,20,0.00,,,0.00,WUHU216WMR968SP,2013-05-07 18:09:00,
2013-05-07 11:14:00,67.5,24.9,29.91,SSW,212,3.1,5.4,20,0.00,,,0.00,WUHU216WMR968SP,2013-05-07 18:14:00,
2013-05-07 11:19:00,67.8,25.2,29.91,SW,214,4.0,6.3,20,0.00,,,0.00,WUHU216WMR968SP,2013-05-07 18:19:00,
2013-05-07 11:24:00,68.4,21.8,29.91,SW,214,0.0,6.3,17,0.00,,,0.00,WUHU216WMR968SP,2013-05-07 18:24:00,
2013-05-07 11:29:00,68.7,22.1,29.91,South,175,2.2,6.3,17,0.00,,,0.00,WUHU216WMR968SP,2013-05-07 18:29:00,
2013-05-07 11:34:00,68.9,22.2,29.91,SSW,213,0.0,6.3,17,0.00,,,0.00,WUHU216WMR968SP,2013-05-07 18:34:00,
2013-05-07 11:39:00,69.4,26.5,29.91,SSW,206,0.0,5.4,20,0.00,,,0.00,WUHU216WMR968SP,2013-05-07 18:39:00,
2013-05-07 11:44:00,68.9,26.1,29.91,SW,222,3.6,6.3,20,0.00,,,0.00,WUHU216WMR968SP,2013-05-07 18:44:00,
2013-05-07 11:49:00,69.4,22.6,29.88,SW,226,2.7,6.3,17,0.00,,,0.00,WUHU216WMR968SP,2013-05-07 18:49:00,
2013-05-07 11:54:00,69.1,22.4,29.88,WSW,247,2.7,5.8,17,0.00,,,0.00,WUHU216WMR968SP,2013-05-07 18:54:00,
2013-05-07 11:59:00,69.3,26.4,29.88,SW,224,3.6,5.8,20,0.00,,,0.00,WUHU216WMR968SP,2013-05-07 18:59:00,
2013-05-07 12:04:00,69.3,26.4,29.88,West,266,2.7,6.3,20,0.00,,,0.00,WUHU216WMR968SP,2013-05-07 19:04:00,
2013-05-07 12:09:00,69.3,26.4,29.88,WNW,298,4.0,6.3,20,0.00,,,0.00,WUHU216WMR968SP,2013-05-07 19:09:00,
2013-05-07 12:14:00,69.8,25.6,29.88,SSW,212,4.0,6.3,19,0.00,,,0.00,WUHU216WMR968SP,2013-05-07 19:14:00,
2013-05-07 12:19:00,69.1,22.4,29.88,SSW,208,4.0,6.3,17,0.00,,,0.00,WUHU216WMR968SP,2013-05-07 19:19:00,
2013-05-07 12:24:00,69.6,22.8,29.88,North,350,3.1,6.3,17,0.00,,,0.00,WUHU216WMR968SP,2013-05-07 19:24:00,
2013-05-07 12:29:00,69.6,26.7,29.88,SW,223,3.1,8.1,20,0.00,,,0.00,WUHU216WMR968SP,2013-05-07 19:29:00,
2013-05-07 12:34:00,69.6,26.7,29.88,SW,217,3.1,8.1,20,0.00,,,0.00,WUHU216WMR968SP,2013-05-07 19:34:00,
2013-05-07 12:39:00,69.4,26.5,29.88,WSW,245,2.2,7.2,20,0.00,,,0.00,WUHU216WMR968SP,2013-05-07 19:39:00,
2013-05-07 12:44:00,69.8,25.6,29.88,SW,222,3.6,7.2,19,0.00,,,0.00,WUHU216WMR968SP,2013-05-07 19:44:00,
2013-05-07 12:49:00,69.8,25.6,29.88,NW,305,3.6,6.7,19,0.00,,,0.00,WUHU216WMR968SP,2013-05-07 19:49:00,
2013-05-07 12:54:00,70.5,26.2,29.88,West,270,2.7,8.3,19,0.00,,,0.00,WUHU216WMR968SP,2013-05-07 19:54:00,
2013-05-07 12:59:00,70.3,26.0,29.88,SW,226,2.7,8.3,19,0.00,,,0.00,WUHU216WMR968SP,2013-05-07 19:59:00,
2013-05-07 13:04:00,70.3,26.0,29.88,SSW,205,2.7,6.3,19,0.00,,,0.00,WUHU216WMR968SP,2013-05-07 20:04:00,
2013-05-07 13:09:00,70.5,26.2,29.88,West,262,4.5,8.7,19,0.00,,,0.00,WUHU216WMR968SP,2013-05-07 20:09:00,
2013-05-07 13:14:00,70.7,26.4,29.88,SSW,205,2.7,8.7,19,0.00,,,0.00,WUHU216WMR968SP,2013-05-07 20:14:00,
2013-05-07 13:19:00,70.3,26.0,29.88,WSW,250,3.1,7.6,19,0.00,,,0.00,WUHU216WMR968SP,2013-05-07 20:19:00,
2013-05-07 13:24:00,70.5,26.2,29.88,SSW,213,3.6,4.5,19,0.00,,,0.00,WUHU216WMR968SP,2013-05-07 20:24:00,
2013-05-07 13:29:00,70.3,26.0,29.88,WNW,296,4.5,8.3,19,0.00,,,0.00,WUHU216WMR968SP,2013-05-07 20:29:00,
2013-05-07 13:34:00,70.9,26.5,29.88,West,269,4.5,8.3,19,0.00,,,0.00,WUHU216WMR968SP,2013-05-07 20:34:00,
2013-05-07 13:39:00,71.2,26.8,29.88,North,353,4.5,7.6,19,0.00,,,0.00,WUHU216WMR968SP,2013-05-07 20:39:00,
2013-05-07 13:44:00,71.4,24.3,29.88,NE,36,5.4,7.6,17,0.00,,,0.00,WUHU216WMR968SP,2013-05-07 20:44:00,
2013-05-07 13:49:00,71.2,24.1,29.88,NW,320,3.1,8.1,17,0.00,,,0.00,WUHU216WMR968SP,2013-05-07 20:49:00,
2013-05-07 13:54:00,71.6,27.1,29.88,WNW,297,4.0,8.1,19,0.00,,,0.00,WUHU216WMR968SP,2013-05-07 20:54:00,
2013-05-07 13:59:00,71.2,26.8,29.88,WNW,288,3.6,7.6,19,0.00,,,0.00,WUHU216WMR968SP,2013-05-07 20:59:00,
2013-05-07 14:04:00,71.2,26.8,29.88,SW,214,0.0,7.6,19,0.00,,,0.00,WUHU216WMR968SP,2013-05-07 21:04:00,
2013-05-07 14:09:00,71.6,27.1,29.88,WSW,245,2.2,5.4,19,0.00,,,0.00,WUHU216WMR968SP,2013-05-07 21:09:00,
2013-05-07 14:14:00,71.2,26.8,29.88,NW,317,3.1,8.3,19,0.00,,,0.00,WUHU216WMR968SP,2013-05-07 21:14:00,
2013-05-07 14:19:00,71.4,26.9,29.88,SW,216,2.2,8.3,19,0.00,,,0.00,WUHU216WMR968SP,2013-05-07 21:19:00,
2013-05-07 14:24:00,71.4,26.9,29.88,SSW,211,3.6,6.3,19,0.00,,,0.00,WUHU216WMR968SP,2013-05-07 21:24:00,
2013-05-07 14:29:00,71.8,27.3,29.88,SW,233,2.7,8.7,19,0.00,,,0.00,WUHU216WMR968SP,2013-05-07 21:29:00,
2013-05-07 14:34:00,72.0,27.4,29.88,North,353,6.3,9.6,19,0.00,,,0.00,WUHU216WMR968SP,2013-05-07 21:34:00,
2013-05-07 14:39:00,72.3,27.7,29.88,WSW,244,2.2,9.6,19,0.00,,,0.00,WUHU216WMR968SP,2013-05-07 21:39:00,
2013-05-07 14:44:00,71.6,27.1,29.88,NW,306,4.5,8.7,19,0.00,,,0.00,WUHU216WMR968SP,2013-05-07 21:44:00,
2013-05-07 14:49:00,72.1,27.5,29.88,WNW,284,4.0,8.7,19,0.00,,,0.00,WUHU216WMR968SP,2013-05-07 21:49:00,
2013-05-07 14:54:00,72.9,28.2,29.88,West,269,2.7,8.1,19,0.00,,,0.00,WUHU216WMR968SP,2013-05-07 21:54:00,
2013-05-07 14:59:00,72.5,27.8,29.88,SW,227,4.5,8.7,19,0.00,,,0.00,WUHU216WMR968SP,2013-05-07 21:59:00,
2013-05-07 15:04:00,72.5,27.8,29.85,West,281,3.1,8.7,19,0.00,,,0.00,WUHU216WMR968SP,2013-05-07 22:04:00,
2013-05-07 15:09:00,72.1,27.5,29.85,WNW,303,4.5,5.8,19,0.00,,,0.00,WUHU216WMR968SP,2013-05-07 22:09:00,
2013-05-07 15:14:00,72.5,23.7,29.85,SW,229,3.1,5.8,16,0.00,,,0.00,WUHU216WMR968SP,2013-05-07 22:14:00,
2013-05-07 15:19:00,72.7,23.9,29.85,South,187,4.5,5.8,16,0.00,,,0.00,WUHU216WMR968SP,2013-05-07 22:19:00,
2013-05-07 15:24:00,73.0,24.1,29.85,WSW,252,2.2,5.8,16,0.00,,,0.00,WUHU216WMR968SP,2013-05-07 22:24:00,
2013-05-07 15:29:00,73.2,24.3,29.85,SW,218,2.2,5.8,16,0.00,,,0.00,WUHU216WMR968SP,2013-05-07 22:29:00,
2013-05-07 15:34:00,73.4,24.4,29.85,West,278,3.1,4.9,16,0.00,,,0.00,WUHU216WMR968SP,2013-05-07 22:34:00,
2013-05-07 15:39:00,73.9,24.8,29.85,NNW,337,4.0,8.1,16,0.00,,,0.00,WUHU216WMR968SP,2013-05-07 22:39:00,
2013-05-07 15:44:00,73.6,24.6,29.85,West,280,5.4,8.1,16,0.00,,,0.00,WUHU216WMR968SP,2013-05-07 22:44:00,
2013-05-07 15:49:00,73.6,27.4,29.85,West,265,3.1,8.7,18,0.00,,,0.00,WUHU216WMR968SP,2013-05-07 22:49:00,
2013-05-07 15:54:00,73.4,24.4,29.85,SW,217,4.5,8.7,16,0.00,,,0.00,WUHU216WMR968SP,2013-05-07 22:54:00,
2013-05-07 15:59:00,74.3,25.1,29.85,North,357,3.6,8.7,16,0.00,,,0.00,WUHU216WMR968SP,2013-05-07 22:59:00,
2013-05-07 16:04:00,74.1,25.0,29.85,NW,321,2.7,8.7,16,0.00,,,0.00,WUHU216WMR968SP,2013-05-07 23:04:00,
2013-05-07 16:09:00,74.3,25.1,29.85,SW,228,2.7,7.6,16,0.00,,,0.00,WUHU216WMR968SP,2013-05-07 23:09:00,
2013-05-07 16:14:00,74.7,25.5,29.85,SSW,213,2.2,6.3,16,0.00,,,0.00,WUHU216WMR968SP,2013-05-07 23:14:00,
2013-05-07 16:19:00,74.5,25.3,29.85,SW,233,6.3,9.2,16,0.00,,,0.00,WUHU216WMR968SP,2013-05-07 23:19:00,
2013-05-07 16:24:00,73.8,24.7,29.85,North,7,4.5,9.2,16,0.00,,,0.00,WUHU216WMR968SP,2013-05-07 23:24:00,
2013-05-07 16:29:00,74.1,25.0,29.85,West,279,4.5,8.1,16,0.00,,,0.00,WUHU216WMR968SP,2013-05-07 23:29:00,
2013-05-07 16:34:00,73.6,24.6,29.85,NNW,345,2.7,8.1,16,0.00,,,0.00,WUHU216WMR968SP,2013-05-07 23:34:00,
2013-05-07 16:39:00,74.1,25.0,29.85,WNW,285,4.0,8.1,16,0.00,,,0.00,WUHU216WMR968SP,2013-05-07 23:39:00,
2013-05-07 16:44:00,74.1,25.0,29.85,WSW,258,2.7,9.2,16,0.00,,,0.00,WUHU216WMR968SP,2013-05-07 23:44:00,
2013-05-07 16:49:00,73.6,24.6,29.85,NW,325,4.5,9.2,16,0.00,,,0.00,WUHU216WMR968SP,2013-05-07 23:49:00,
2013-05-07 16:54:00,73.6,24.6,29.85,North,6,2.7,8.1,16,0.00,,,0.00,WUHU216WMR968SP,2013-05-07 23:54:00,
2013-05-07 16:59:00,74.3,25.1,29.85,WNW,299,4.5,6.7,16,0.00,,,0.00,WUHU216WMR968SP,2013-05-07 23:59:00,
2013-05-07 17:04:00,73.9,24.8,29.85,WSW,247,2.2,6.7,16,0.00,,,0.00,WUHU216WMR968SP,2013-05-08 00:04:00,
2013-05-07 17:09:00,73.4,24.4,29.85,SW,217,3.1,8.7,16,0.00,,,0.00,WUHU216WMR968SP,2013-05-08 00:09:00,
2013-05-07 17:14:00,73.4,24.4,29.85,West,260,4.0,8.7,16,0.00,,,0.00,WUHU216WMR968SP,2013-05-08 00:14:00,
2013-05-07 17:19:00,73.2,24.3,29.85,SW,231,4.5,6.3,16,0.00,,,0.00,WUHU216WMR968SP,2013-05-08 00:19:00,
2013-05-07 17:24:00,73.6,24.6,29.85,SSE,151,3.6,6.3,16,0.00,,,0.00,WUHU216WMR968SP,2013-05-08 00:24:00,
2013-05-07 17:29:00,73.6,24.6,29.85,SW,223,2.2,6.3,16,0.00,,,0.00,WUHU216WMR968SP,2013-05-08 00:29:00,
2013-05-07 17:34:00,73.4,24.4,29.88,SW,232,3.6,6.3,16,0.00,,,0.00,WUHU216WMR968SP,2013-05-08 00:34:00,
2013-05-07 17:39:00,73.0,24.1,29.88,SW,217,3.1,6.3,16,0.00,,,0.00,WUHU216WMR968SP,2013-05-08 00:39:00,
2013-05-07 17:44:00,72.7,23.9,29.88,WNW,296,2.7,5.4,16,0.00,,,0.00,WUHU216WMR968SP,2013-05-08 00:44:00,
2013-05-07 17:49:00,72.3,23.5,29.88,West,265,3.1,5.4,16,0.00,,,0.00,WUHU216WMR968SP,2013-05-08 00:49:00,
2013-05-07 17:54:00,72.7,23.9,29.88,WSW,252,3.1,8.1,16,0.00,,,0.00,WUHU216WMR968SP,2013-05-08 00:54:00,
2013-05-07 17:59:00,72.3,23.5,29.88,WNW,282,2.2,8.1,16,0.00,,,0.00,WUHU216WMR968SP,2013-05-08 00:59:00,
2013-05-07 18:04:00,72.3,23.5,29.88,West,277,2.7,4.0,16,0.00,,,0.00,WUHU216WMR968SP,2013-05-08 01:04:00,
2013-05-07 18:09:00,71.8,23.1,29.88,SW,216,3.6,6.3,16,0.00,,,0.00,WUHU216WMR968SP,2013-05-08 01:09:00,
2013-05-07 18:14:00,72.0,23.3,29.88,WNW,291,3.1,6.3,16,0.00,,,0.00,WUHU216WMR968SP,2013-05-08 01:14:00,
2013-05-07 18:19:00,72.3,23.5,29.88,NNW,337,2.7,6.3,16,0.00,,,0.00,WUHU216WMR968SP,2013-05-08 01:19:00,
2013-05-07 18:24:00,72.0,23.3,29.88,NW,304,3.1,6.3,16,0.00,,,0.00,WUHU216WMR968SP,2013-05-08 01:24:00,
2013-05-07 18:29:00,72.0,23.3,29.88,SW,223,2.7,7.6,16,0.00,,,0.00,WUHU216WMR968SP,2013-05-08 01:29:00,
2013-05-07 18:34:00,72.3,23.5,29.88,SW,229,0.0,7.6,16,0.00,,,0.00,WUHU216WMR968SP,2013-05-08 01:34:00,
2013-05-07 18:39:00,72.3,23.5,29.88,NW,305,5.4,6.3,16,0.00,,,0.00,WUHU216WMR968SP,2013-05-08 01:39:00,
2013-05-07 18:44:00,72.3,23.5,29.88,WNW,298,3.1,8.1,16,0.00,,,0.00,WUHU216WMR968SP,2013-05-08 01:44:00,
2013-05-07 18:49:00,72.5,23.7,29.88,North,357,2.7,8.1,16,0.00,,,0.00,WUHU216WMR968SP,2013-05-08 01:49:00,
2013-05-07 18:54:00,72.3,23.5,29.88,SW,227,2.2,6.3,16,0.00,,,0.00,WUHU216WMR968SP,2013-05-08 01:54:00,
2013-05-07 18:59:00,72.1,23.4,29.88,NNW,337,2.7,4.9,16,0.00,,,0.00,WUHU216WMR968SP,2013-05-08 01:59:00,
2013-05-07 19:04:00,72.0,23.3,29.88,NW,309,3.1,4.9,16,0.00,,,0.00,WUHU216WMR968SP,2013-05-08 02:04:00,
2013-05-07 19:09:00,71.6,23.0,29.88,NW,305,2.2,7.6,16,0.00,,,0.00,WUHU216WMR968SP,2013-05-08 02:09:00,
2013-05-07 19:14:00,71.1,24.0,29.88,NNW,338,0.0,7.6,17,0.00,,,0.00,WUHU216WMR968SP,2013-05-08 02:14:00,
2013-05-07 19:19:00,70.3,23.4,29.88,WNW,297,2.7,4.0,17,0.00,,,0.00,WUHU216WMR968SP,2013-05-08 02:19:00,
2013-05-07 19:24:00,70.0,23.1,29.88,NW,313,3.1,4.9,17,0.00,,,0.00,WUHU216WMR968SP,2013-05-08 02:24:00,
2013-05-07 19:29:00,69.4,22.6,29.88,NNW,330,0.0,4.9,17,0.00,,,0.00,WUHU216WMR968SP,2013-05-08 02:29:00,
2013-05-07 19:34:00,69.1,26.3,29.88,West,276,0.0,5.4,20,0.00,,,0.00,WUHU216WMR968SP,2013-05-08 02:34:00,
2013-05-07 19:39:00,68.5,25.8,29.88,North,357,3.1,6.3,20,0.00,,,0.00,WUHU216WMR968SP,2013-05-08 02:39:00,
2013-05-07 19:44:00,68.2,25.5,29.88,NW,308,2.2,6.3,20,0.00,,,0.00,WUHU216WMR968SP,2013-05-08 02:44:00,
2013-05-07 19:49:00,67.6,25.0,29.88,WNW,291,2.7,4.0,20,0.00,,,0.00,WUHU216WMR968SP,2013-05-08 02:49:00,
2013-05-07 19:54:00,66.7,24.3,29.88,WSW,255,2.7,4.0,20,0.00,,,0.00,WUHU216WMR968SP,2013-05-08 02:54:00,
2013-05-07 19:59:00,66.4,24.0,29.88,WSW,239,0.0,3.6,20,0.00,,,0.00,WUHU216WMR968SP,2013-05-08 02:59:00,
2013-05-07 20:04:00,66.0,23.7,29.88,WSW,241,0.0,3.6,20,0.00,,,0.00,WUHU216WMR968SP,2013-05-08 03:04:00,
2013-05-07 20:09:00,65.3,23.1,29.88,WNW,302,2.2,4.0,20,0.00,,,0.00,WUHU216WMR968SP,2013-05-08 03:09:00,
2013-05-07 20:14:00,64.9,22.8,29.88,NW,306,0.0,4.0,20,0.00,,,0.00,WUHU216WMR968SP,2013-05-08 03:14:00,
2013-05-07 20:19:00,64.2,25.5,29.91,SW,230,0.0,3.6,23,0.00,,,0.00,WUHU216WMR968SP,2013-05-08 03:19:00,
2013-05-07 20:24:00,63.9,25.3,29.91,SW,230,0.0,0.0,23,0.00,,,0.00,WUHU216WMR968SP,2013-05-08 03:24:00,
2013-05-07 20:29:00,63.5,24.9,29.91,NNW,343,0.0,0.0,23,0.00,,,0.00,WUHU216WMR968SP,2013-05-08 03:29:00,
2013-05-07 20:34:00,63.1,25.6,29.91,NNW,343,0.0,0.0,24,0.00,,,0.00,WUHU216WMR968SP,2013-05-08 03:34:00,
2013-05-07 20:39:00,63.0,25.5,29.91,NNW,343,0.0,0.0,24,0.00,,,0.00,WUHU216WMR968SP,2013-05-08 03:39:00,
2013-05-07 20:44:00,62.6,25.2,29.91,NNW,343,0.0,0.0,24,0.00,,,0.00,WUHU216WMR968SP,2013-05-08 03:44:00,
2013-05-07 20:49:00,62.2,24.8,29.91,NNW,343,0.0,0.0,24,0.00,,,0.00,WUHU216WMR968SP,2013-05-08 03:49:00,
2013-05-07 20:54:00,61.7,25.4,29.91,North,353,0.0,0.0,25,0.00,,,0.00,WUHU216WMR968SP,2013-05-08 03:54:00,
2013-05-07 20:59:00,61.3,25.0,29.91,East,96,0.0,0.0,25,0.00,,,0.00,WUHU216WMR968SP,2013-05-08 03:59:00,
2013-05-07 21:01:00,61.2,24.9,29.91,East,96,0.0,0.0,25,0.00,,,0.00,WUHU216WMR968SP,2013-05-08 04:01:00,
2013-05-07 21:06:00,60.4,25.2,29.94,East,96,0.0,0.0,26,0.00,,,0.00,WUHU216WMR968SP,2013-05-08 04:06:00,
2013-05-07 21:11:00,59.7,24.6,29.94,East,96,0.0,0.0,26,0.00,,,0.00,WUHU216WMR968SP,2013-05-08 04:11:00,
2013-05-07 21:16:00,59.2,25.9,29.94,SSW,205,3.6,4.0,28,0.00,,,0.00,WUHU216WMR968SP,2013-05-08 04:16:00,
2013-05-07 21:21:00,59.2,25.9,29.94,SSW,205,0.0,4.0,28,0.00,,,0.00,WUHU216WMR968SP,2013-05-08 04:21:00,
2013-05-07 21:26:00,59.2,25.9,29.94,SSW,205,0.0,4.0,28,0.00,,,0.00,WUHU216WMR968SP,2013-05-08 04:26:00,
2013-05-07 21:31:00,58.1,25.8,29.94,SSW,205,0.0,2.7,29,0.00,,,0.00,WUHU216WMR968SP,2013-05-08 04:31:00,
2013-05-07 21:36:00,57.6,26.2,29.94,SSW,205,0.0,2.7,30,0.00,,,0.00,WUHU216WMR968SP,2013-05-08 04:36:00,
2013-05-07 21:41:00,57.4,26.8,29.94,SSW,205,0.0,0.0,31,0.00,,,0.00,WUHU216WMR968SP,2013-05-08 04:41:00,
2013-05-07 21:46:00,57.2,27.4,29.94,SSW,205,0.0,0.0,32,0.00,,,0.00,WUHU216WMR968SP,2013-05-08 04:46:00,
2013-05-07 21:51:00,57.0,27.2,29.94,SSW,205,0.0,0.0,32,0.00,,,0.00,WUHU216WMR968SP,2013-05-08 04:51:00,
2013-05-07 21:56:00,56.3,28.1,29.94,SSW,205,0.0,0.0,34,0.00,,,0.00,WUHU216WMR968SP,2013-05-08 04:56:00,
2013-05-07 22:01:00,56.3,28.8,29.94,SSW,205,0.0,0.0,35,0.00,,,0.00,WUHU216WMR968SP,2013-05-08 05:01:00,
2013-05-07 22:06:00,55.9,28.4,29.97,SSW,205,0.0,0.0,35,0.00,,,0.00,WUHU216WMR968SP,2013-05-08 05:06:00,
2013-05-07 22:11:00,55.2,28.5,29.97,SSW,205,0.0,0.0,36,0.00,,,0.00,WUHU216WMR968SP,2013-05-08 05:11:00,
2013-05-07 22:16:00,54.9,28.2,29.97,SSW,205,0.0,0.0,36,0.00,,,0.00,WUHU216WMR968SP,2013-05-08 05:16:00,
2013-05-07 22:21:00,54.9,28.2,29.97,SSW,205,0.0,0.0,36,0.00,,,0.00,WUHU216WMR968SP,2013-05-08 05:21:00,
2013-05-07 22:26:00,54.5,28.5,29.97,SSW,205,0.0,0.0,37,0.00,,,0.00,WUHU216WMR968SP,2013-05-08 05:26:00,
2013-05-07 22:31:00,54.0,28.1,29.97,SSW,205,0.0,0.0,37,0.00,,,0.00,WUHU216WMR968SP,2013-05-08 05:31:00,
2013-05-07 22:36:00,54.0,28.1,29.97,SSW,205,0.0,0.0,37,0.00,,,0.00,WUHU216WMR968SP,2013-05-08 05:36:00,
2013-05-07 22:41:00,54.0,28.1,29.97,SSW,205,0.0,0.0,37,0.00,,,0.00,WUHU216WMR968SP,2013-05-08 05:41:00,
2013-05-07 22:46:00,53.8,27.9,29.97,SSW,205,0.0,0.0,37,0.00,,,0.00,WUHU216WMR968SP,2013-05-08 05:46:00,
2013-05-07 22:51:00,53.6,28.4,29.97,SSW,205,0.0,0.0,38,0.00,,,0.00,WUHU216WMR968SP,2013-05-08 05:51:00,
2013-05-07 22:56:00,52.9,28.4,29.97,SSW,205,0.0,0.0,39,0.00,,,0.00,WUHU216WMR968SP,2013-05-08 05:56:00,
2013-05-07 23:01:00,52.9,28.4,29.97,SSW,205,0.0,0.0,39,0.00,,,0.00,WUHU216WMR968SP,2013-05-08 06:01:00,
2013-05-07 23:06:00,52.9,28.4,29.97,SSW,205,0.0,0.0,39,0.00,,,0.00,WUHU216WMR968SP,2013-05-08 06:06:00,
2013-05-07 23:11:00,52.9,29.0,29.97,SSW,205,0.0,0.0,40,0.00,,,0.00,WUHU216WMR968SP,2013-05-08 06:11:00,
2013-05-07 23:16:00,52.5,28.7,29.97,SSW,205,0.0,0.0,40,0.00,,,0.00,WUHU216WMR968SP,2013-05-08 06:16:00,
2013-05-07 23:21:00,52.5,28.7,29.97,SSW,205,0.0,0.0,40,0.00,,,0.00,WUHU216WMR968SP,2013-05-08 06:21:00,
2013-05-07 23:26:00,52.5,28.7,29.97,SSW,205,0.0,0.0,40,0.00,,,0.00,WUHU216WMR968SP,2013-05-08 06:26:00,
2013-05-07 23:31:00,52.3,28.5,29.97,SSW,205,0.0,0.0,40,0.00,,,0.00,WUHU216WMR968SP,2013-05-08 06:31:00,
2013-05-07 23:36:00,51.8,28.1,29.97,SSW,205,0.0,0.0,40,0.00,,,0.00,WUHU216WMR968SP,2013-05-08 06:36:00,
2013-05-07 23:41:00,51.4,28.3,29.97,SSW,205,0.0,0.0,41,0.00,,,0.00,WUHU216WMR968SP,2013-05-08 06:41:00,
2013-05-07 23:46:00,50.9,29.1,29.97,SSW,205,0.0,0.0,43,0.00,,,0.00,WUHU216WMR968SP,2013-05-08 06:46:00,
2013-05-07 23:51:00,50.7,28.9,30.00,SSW,205,0.0,0.0,43,0.00,,,0.00,WUHU216WMR968SP,2013-05-08 06:51:00,
2013-05-07 23:56:00,50.7,28.9,30.00,SSW,205,0.0,0.0,43,0.00,,,0.00,WUHU216WMR968SP,2013-05-08 06:56:00,